sat.trackr.live / text

‹ back to catalog

STARLINK-37516

NORAD 68915 · 2026-097W

PAYLOAD ACTIVE UNKNOWN

§ Identity

Operator
Country
US
Launch date
2026-04-30
Launch site
AFWTR
Launch vehicle
Mass (kg)
RCS (m²)

Purposes: comms

External: N2YO · Heavens-Above · Gunter

§ Orbital elements

Epoch: 2026-09-19T23:03:41.924160Z

Period
93.91 min
Inclination
97.2845°
Eccentricity
0.0003123
Mean motion
15.33457325 rev/d
Perigee alt
463.4 km
Apogee alt
467.6 km
Semi-major
6,843.6 km
B*
4.1304e-4
RAAN
97.1807°
Arg perigee
87.2726°
Mean anomaly
272.8874°
Rev number
2,201

§ Raw data

STARLINK-375161 68915U 26097W   26262.96090190  .00013290  00000+0  41304-3 0  99942 68915  97.2845  97.1807 0003123  87.2726 272.8874 15.33457325 22010

JSON: /api/v1/satellites/68915 · /tle

For live sub-satellite position, see the globe view (requires WebGL).

§ Visibility from observer

Set your observer location to see the next 7 days of passes ≥ 10°. The values pass through the URL so the page stays shareable.

No JS? Fill the form by hand. The geolocation button needs JavaScript.